DW0383 Weather Reports


Display with metric or nautical units.
time (UTC)temp
F
wind
direction
speed
MPH
gust
MPH
rain 1hr
in
rain 24hr
in
rain mn
in
humidity
%
barometer
mb
20190319173416 31 328 0.0 7.0 0.00 0.00 0.00 36 1029.0
20190319172925 31 326 2.0 9.0 0.00 0.00 0.00 42 1029.2
20190319172433 31 331 2.0 9.0 0.00 0.00 0.00 41 1029.3
20190319171917 31 10 1.0 9.0 0.00 0.00 0.00 39 1029.2
20190319171422 32 333 1.0 8.0 0.00 0.00 0.00 42 1029.2
20190319170947 32 33 2.0 8.0 0.00 0.00 0.00 40 1029.4
20190319170416 32 331 1.0 7.0 0.00 0.00 0.00 39 1029.4
20190319165927 31 351 0.0 8.0 0.00 0.00 0.00 40 1029.3
20190319165433 31 325 2.0 8.0 0.00 0.00 0.00 39 1029.4
20190319164936 31 326 1.0 5.0 0.00 0.00 0.00 39 1029.4
20190319164443 30 350 1.0 6.0 0.00 0.00 0.00 41 1029.3
20190319163944 30 317 0.0 6.0 0.00 0.00 0.00 38 1029.3
20190319163426 30 353 0.0 7.0 0.00 0.00 0.00 43 1029.4
20190319162930 29 360 1.0 7.0 0.00 0.00 0.00 44 1029.4
20190319162416 29 310 2.0 8.0 0.00 0.00 0.00 39 1029.4
20190319161945 30 327 5.0 7.0 0.00 0.00 0.00 42 1029.4
20190319161430 29 330 0.0 8.0 0.00 0.00 0.00 43 1029.4
20190319160918 29 320 2.0 8.0 0.00 0.00 0.00 39 1029.3
20190319160422 29 337 4.0 7.0 0.00 0.00 0.00 39 1029.3
20190319155928 29 330 4.0 6.0 0.00 0.00 0.00 39 1029.2
20190319155432 29 339 2.0 5.0 0.00 0.00 0.00 40 1029.2
20190319154934 30 347 2.0 7.0 0.00 0.00 0.00 44 1029.2
20190319154417 29 328 4.0 7.0 0.00 0.00 0.00 42 1029.1
20190319153924 29 320 3.0 9.0 0.00 0.00 0.00 42 1029.1
20190319153449 29 329 2.0 9.0 0.00 0.00 0.00 42 1029.0
20190319152931 29 324 1.0 6.0 0.00 0.00 0.00 40 1029.0
20190319152455 30 301 1.0 6.0 0.00 0.00 0.00 43 1029.1
20190319151917 29 278 2.0 6.0 0.00 0.00 0.00 45 1029.1
20190319151449 29 322 0.0 8.0 0.00 0.00 0.00 44 1029.1
20190319150917 29 322 4.0 8.0 0.00 0.00 0.00 47 1029.1
20190319150423 29 324 1.0 5.0 0.00 0.00 0.00 46 1029.1
20190319145929 29 339 1.0 5.0 0.00 0.00 0.00 46 1029.1
20190319145432 29 291 2.0 5.0 0.00 0.00 0.00 47 1029.1
20190319144916 28 330 0.0 1.0 0.00 0.00 0.00 50 1029.0
20190319144442 27 330 0.0 2.0 0.00 0.00 0.00 52 1029.1
20190319143944 26 330 1.0 4.0 0.00 0.00 0.00 51 1029.0
20190319143429 26 330 1.0 4.0 0.00 0.00 0.00 53 1029.0
20190319142952 26 329 0.0 5.0 0.00 0.00 0.00 49 1029.0
20190319142416 26 329 2.0 5.0 0.00 0.00 0.00 49 1029.0
20190319141927 26 346 0.0 0.0 0.00 0.00 0.00 51 1029.0
20190319141453 25 261 0.0 0.0 0.00 0.00 0.00 53 1028.9
20190319140921 25 259 0.0 0.0 0.00 0.00 0.00 54 1028.9
20190319140425 24 261 0.0 0.0 0.00 0.00 0.00 51 1028.9
20190319135934 24 328 0.0 0.0 0.00 0.00 0.00 54 1028.7
20190319135441 24 328 0.0 0.0 0.00 0.00 0.00 56 1028.6
20190319134928 24 335 0.0 0.0 0.00 0.00 0.00 57 1028.7
20190319134414 24 335 0.0 0.0 0.00 0.00 0.00 58 1028.6
20190319133921 23 358 0.0 0.0 0.00 0.00 0.00 64 1028.6
20190319133426 23 358 0.0 0.0 0.00 0.00 0.00 65 1028.6
20190319132929 23 5 0.0 0.0 0.00 0.00 0.00 67 1028.5
20190319132435 22 5 0.0 0.0 0.00 0.00 0.00 69 1028.6
20190319131923 21 5 0.0 0.0 0.00 0.00 0.00 72 1028.5
20190319131429 21 5 0.0 0.0 0.00 0.00 0.00 74 1028.5
20190319130918 20 5 0.0 0.0 0.00 0.00 0.00 76 1028.6
20190319130427 20 5 0.0 0.0 0.00 0.00 0.00 76 1028.4
20190319125951 20 5 0.0 0.0 0.00 0.00 0.00 76 1028.4
20190319125417 19 5 0.0 0.0 0.00 0.00 0.00 78 1028.4
20190319124922 19 5 0.0 0.0 0.00 0.00 0.00 78 1028.3
20190319124425 18 5 0.0 0.0 0.00 0.00 0.00 80 1028.3
20190319123953 18 5 0.0 0.0 0.00 0.00 0.00 80 1028.4
20190319123435 18 5 0.0 0.0 0.00 0.00 0.00 79 1028.4
20190319122922 18 5 0.0 0.0 0.00 0.00 0.00 78 1028.3
20190319122425 18 5 0.0 0.0 0.00 0.00 0.00 79 1028.3
20190319121932 18 5 0.0 0.0 0.00 0.00 0.00 81 1028.3
20190319121422 17 5 0.0 0.0 0.00 0.00 0.00 85 1028.3
20190319120947 16 5 0.0 0.0 0.00 0.00 0.00 88 1028.3
20190319120449 14 5 0.0 0.0 0.00 0.00 0.00 88 1028.3
20190319115953 13 5 0.0 0.0 0.00 0.00 0.00 89 1028.1
20190319115421 12 5 0.0 0.0 0.00 0.00 0.00 90 1028.1
20190319114928 11 5 0.0 0.0 0.00 0.00 0.00 90 1028.1
20190319114432 10 5 0.0 0.0 0.00 0.00 0.00 90 1028.0
20190319113955 10 5 0.0 0.0 0.00 0.00 0.00 89 1028.1
20190319113417 10 5 0.0 0.0 0.00 0.00 0.00 89 1028.0
20190319112921 10 5 0.0 0.0 0.00 0.00 0.00 89 1028.0
20190319112428 10 5 0.0 0.0 0.00 0.00 0.00 89 1027.8
20190319111915 10 5 0.0 0.0 0.00 0.00 0.00 89 1027.8
20190319111421 10 5 0.0 0.0 0.00 0.00 0.00 89 1027.7
20190319110932 10 5 0.0 0.0 0.00 0.00 0.00 89 1027.7
20190319110436 10 5 0.0 0.0 0.00 0.00 0.00 89 1027.6
20190319105922 10 5 0.0 0.0 0.00 0.00 0.00 89 1027.7
20190319105424 10 5 0.0 0.0 0.00 0.00 0.00 89 1027.5
20190319104935 10 5 0.0 0.0 0.00 0.00 0.00 89 1027.4
20190319104425 10 5 0.0 0.0 0.00 0.00 0.00 88 1027.4
20190319103932 10 5 0.0 0.0 0.00 0.00 0.00 88 1027.4
20190319103439 10 5 0.0 0.0 0.00 0.00 0.00 88 1027.3
20190319102923 10 5 0.0 0.0 0.00 0.00 0.00 87 1027.2
20190319102429 11 5 0.0 0.0 0.00 0.00 0.00 87 1027.2
20190319101954 11 5 0.0 0.0 0.00 0.00 0.00 88 1027.1
20190319101439 11 5 0.0 0.0 0.00 0.00 0.00 87 1027.0
20190319100925 11 5 0.0 0.0 0.00 0.00 0.00 87 1026.9
20190319100429 11 5 0.0 0.0 0.00 0.00 0.00 87 1026.9
20190319095933 11 5 0.0 0.0 0.00 0.00 0.00 86 1026.9
20190319095416 11 5 0.0 0.0 0.00 0.00 0.00 86 1026.8
20190319094922 12 5 0.0 0.0 0.00 0.00 0.00 86 1026.8
20190319094444 12 5 0.0 0.0 0.00 0.00 0.00 86 1026.7
20190319093926 12 5 0.0 0.0 0.00 0.00 0.00 86 1026.7
20190319093454 12 5 0.0 0.0 0.00 0.00 0.00 85 1026.8
20190319092939 12 5 0.0 0.0 0.00 0.00 0.00 85 1026.7
20190319092424 12 5 0.0 0.0 0.00 0.00 0.00 84 1026.6
20190319091951 13 5 0.0 0.0 0.00 0.00 0.00 84 1026.5
20190319091453 13 5 0.0 0.0 0.00 0.00 0.00 83 1026.5
20190319090918 13 5 0.0 0.0 0.00 0.00 0.00 84 1026.5
20190319090425 13 5 0.0 0.0 0.00 0.00 0.00 84 1026.4
20190319085956 13 5 0.0 0.0 0.00 0.00 0.00 84 1026.2
20190319085442 13 5 0.0 0.0 0.00 0.00 0.00 83 1026.1
20190319084944 14 5 0.0 0.0 0.00 0.00 0.00 83 1026.2
20190319084427 14 5 0.0 0.0 0.00 0.00 0.00 83 1026.2
20190319083920 15 5 0.0 0.0 0.00 0.00 0.00 83 1026.2
20190319083422 15 5 0.0 0.0 0.00 0.00 0.00 82 1026.3
20190319082929 15 5 0.0 0.0 0.00 0.00 0.00 82 1026.2
20190319082415 15 5 0.0 0.0 0.00 0.00 0.00 82 1026.2
20190319081942 15 5 0.0 0.0 0.00 0.00 0.00 82 1026.3
20190319081448 15 5 0.0 0.0 0.00 0.00 0.00 82 1026.3
20190319080958 15 5 0.0 0.0 0.00 0.00 0.00 82 1026.2
20190319080441 16 5 0.0 0.0 0.00 0.00 0.00 81 1026.1
20190319075928 16 5 0.0 0.0 0.00 0.00 0.00 80 1026.1
20190319075435 16 5 0.0 0.0 0.00 0.00 0.00 79 1026.0
20190319074921 17 5 0.0 0.0 0.00 0.00 0.00 78 1026.0
20190319074423 17 5 0.0 0.0 0.00 0.00 0.00 77 1026.0
20190319073947 17 5 0.0 0.0 0.00 0.00 0.00 77 1026.1
20190319073431 17 5 0.0 0.0 0.00 0.00 0.00 78 1026.0
20190319072954 18 5 0.0 0.0 0.00 0.00 0.00 79 1026.1
20190319072442 18 5 0.0 0.0 0.00 0.00 0.00 78 1026.1
20190319071940 18 5 0.0 0.0 0.00 0.00 0.00 78 1026.2
20190319071425 18 5 0.0 0.0 0.00 0.00 0.00 78 1026.2
20190319070948 18 5 0.0 0.0 0.00 0.00 0.00 78 1026.2
20190319070451 18 5 0.0 0.0 0.00 0.00 0.00 77 1026.3
20190319065917 18 5 0.0 0.0 0.00 0.00 0.00 79 1026.2
20190319065424 19 5 0.0 0.0 0.00 0.00 0.00 79 1026.2
20190319064928 19 5 0.0 0.0 0.00 0.00 0.00 79 1026.2
20190319064431 19 5 0.0 0.0 0.00 0.00 0.00 79 1026.2
20190319063936 19 5 0.0 0.0 0.00 0.00 0.00 79 1026.2
20190319063420 19 5 0.0 0.0 0.00 0.00 0.00 80 1026.1
20190319062923 19 5 0.0 0.0 0.00 0.00 0.00 81 1026.2
20190319062418 19 5 0.0 0.0 0.00 0.00 0.00 81 1026.2
20190319061925 19 5 0.0 0.0 0.00 0.00 0.00 81 1026.2
20190319061450 19 5 0.0 0.0 0.00 0.00 0.00 81 1026.2
20190319060916 19 5 0.0 0.0 0.00 0.00 0.00 81 1026.1
20190319060422 19 5 0.0 0.0 0.00 0.00 0.00 80 1026.1
20190319055929 18 5 0.0 0.0 0.00 0.00 0.00 80 1026.0
20190319055433 18 5 0.0 0.0 0.00 0.00 0.00 80 1026.0
20190319054952 18 5 0.0 0.0 0.00 0.00 0.00 81 1026.1
20190319054422 18 5 0.0 0.0 0.00 0.00 0.00 81 1026.0
20190319053929 18 5 0.0 0.0 0.00 0.00 0.00 81 1025.9
20190319053450 18 5 0.0 0.0 0.00 0.00 0.00 82 1025.7
20190319052920 18 5 0.0 0.0 0.00 0.00 0.00 82 1025.8
20190319052428 18 5 0.0 0.0 0.00 0.00 0.00 81 1025.8
20190319051915 18 5 0.0 0.0 0.00 0.00 0.00 80 1025.7
20190319051426 18 5 0.0 0.0 0.00 0.00 0.00 80 1025.7
20190319050933 17 5 0.0 0.0 0.00 0.00 0.00 81 1025.7
20190319050422 17 5 0.0 0.0 0.00 0.00 0.00 81 1025.6
20190319045945 17 5 0.0 0.0 0.00 0.00 0.00 82 1025.7
20190319045415 17 5 0.0 0.0 0.00 0.00 0.00 83 1025.6
20190319044924 17 5 0.0 0.0 0.00 0.00 0.00 83 1025.7
20190319044428 17 5 0.0 0.0 0.00 0.00 0.00 82 1025.7
20190319043917 17 5 0.0 0.0 0.00 0.00 0.00 82 1025.7
20190319043424 17 5 0.0 0.0 0.00 0.00 0.00 83 1025.7
20190319042948 17 5 0.0 0.0 0.00 0.00 0.00 83 1025.7
20190319042430 17 5 0.0 0.0 0.00 0.00 0.00 83 1025.8
20190319041955 17 5 0.0 0.0 0.00 0.00 0.00 82 1025.6
20190319041441 17 5 0.0 0.0 0.00 0.00 0.00 81 1025.6
20190319040928 17 5 0.0 0.0 0.00 0.00 0.00 80 1025.5
20190319040437 17 5 0.0 0.0 0.00 0.00 0.00 78 1025.6
20190319035920 16 5 0.0 0.0 0.00 0.00 0.00 80 1025.5
20190319035426 16 5 0.0 0.0 0.00 0.00 0.00 80 1025.6
20190319034950 16 5 0.0 0.0 0.00 0.00 0.00 80 1025.5
20190319034431 16 5 0.0 0.0 0.00 0.00 0.00 80 1025.5
20190319033917 16 5 0.0 0.0 0.00 0.00 0.00 79 1025.6
20190319033440 16 5 0.0 0.0 0.00 0.00 0.00 77 1025.5
20190319032927 16 5 0.0 0.0 0.00 0.00 0.00 77 1025.6
20190319032438 17 5 0.0 0.0 0.00 0.00 0.00 77 1025.6
20190319031940 17 5 0.0 0.0 0.00 0.00 0.00 77 1025.5
20190319031447 17 5 0.0 0.0 0.00 0.00 0.00 76 1025.5
20190319030933 17 5 0.0 0.0 0.00 0.00 0.00 75 1025.5
20190319030419 18 5 0.0 0.0 0.00 0.00 0.00 76 1025.5
20190319025922 18 5 0.0 0.0 0.00 0.00 0.00 76 1025.5
20190319025453 17 5 0.0 0.0 0.00 0.00 0.00 76 1025.5
20190319024919 17 5 0.0 0.0 0.00 0.00 0.00 75 1025.4
20190319024426 17 5 0.0 0.0 0.00 0.00 0.00 76 1025.4
20190319023919 17 5 0.0 0.0 0.00 0.00 0.00 75 1025.5
20190319023425 17 5 0.0 0.0 0.00 0.00 0.00 74 1025.5
20190319022947 18 5 0.0 0.0 0.00 0.00 0.00 74 1025.4
20190319022431 18 5 0.0 0.0 0.00 0.00 0.00 73 1025.3
20190319021940 19 5 0.0 0.0 0.00 0.00 0.00 71 1025.2
20190319021445 19 5 0.0 0.0 0.00 0.00 0.00 70 1025.2
20190319020932 20 5 0.0 0.0 0.00 0.00 0.00 69 1025.2
20190319020419 21 5 0.0 0.0 0.00 0.00 0.00 68 1025.2
20190319015927 21 5 0.0 0.0 0.00 0.00 0.00 66 1025.2
20190319015421 21 5 0.0 0.0 0.00 0.00 0.00 63 1025.2
20190319014939 21 5 0.0 0.0 0.00 0.00 0.00 67 1025.1
20190319014445 20 5 0.0 0.0 0.00 0.00 0.00 67 1025.2
20190319013931 20 5 0.0 0.0 0.00 0.00 0.00 71 1025.1
20190319013435 21 5 0.0 0.0 0.00 0.00 0.00 66 1025.0
20190319012921 21 5 0.0 0.0 0.00 0.00 0.00 65 1025.0
20190319012424 21 5 0.0 0.0 0.00 0.00 0.00 65 1025.1
20190319011930 22 5 0.0 0.0 0.00 0.00 0.00 64 1025.2
20190319011421 22 5 0.0 0.0 0.00 0.00 0.00 62 1025.0
20190319010942 22 5 0.0 0.0 0.00 0.00 0.00 61 1025.1
20190319010424 22 5 0.0 0.0 0.00 0.00 0.00 59 1025.0
20190319005947 22 5 0.0 0.0 0.00 0.00 0.00 59 1024.9
20190319005450 23 5 0.0 0.0 0.00 0.00 0.00 59 1024.9
20190319004917 23 5 0.0 0.0 0.00 0.00 0.00 61 1024.8
20190319004445 23 5 0.0 0.0 0.00 0.00 0.00 60 1024.7
20190319003930 23 5 0.0 0.0 0.00 0.00 0.00 63 1024.7
20190319003435 24 5 0.0 0.0 0.00 0.00 0.00 63 1024.7
20190319002918 24 5 0.0 0.0 0.00 0.00 0.00 59 1024.7
20190319002427 25 5 0.0 0.0 0.00 0.00 0.00 55 1024.5
20190319001949 25 5 0.0 0.0 0.00 0.00 0.00 57 1024.4
20190319001458 25 5 0.0 0.0 0.00 0.00 0.00 56 1024.4
20190319000923 25 5 0.0 0.0 0.00 0.00 0.00 55 1024.4
20190319000446 25 5 0.0 0.0 0.00 0.00 0.00 56 1024.4
20190318235928 26 5 0.0 0.0 0.00 0.00 0.00 54 1024.3
20190318235452 26 5 0.0 0.0 0.00 0.00 0.00 49 1024.1
20190318234935 26 5 0.0 3.0 0.00 0.00 0.00 50 1024.2
20190318234423 26 5 1.0 3.0 0.00 0.00 0.00 51 1024.0
20190318233932 26 1 0.0 0.0 0.00 0.00 0.00 52 1024.1
20190318233441 26 359 0.0 0.0 0.00 0.00 0.00 53 1023.9
20190318232924 26 345 0.0 0.0 0.00 0.00 0.00 54 1024.0
20190318232434 26 345 0.0 0.0 0.00 0.00 0.00 55 1024.0
20190318231918 27 345 0.0 0.0 0.00 0.00 0.00 52 1024.0
20190318231423 27 345 0.0 2.0 0.00 0.00 0.00 53 1024.0
20190318230933 27 344 0.0 2.0 0.00 0.00 0.00 54 1023.9
20190318230418 27 343 0.0 4.0 0.00 0.00 0.00 55 1023.9
20190318225941 27 343 0.0 4.0 0.00 0.00 0.00 57 1023.8
20190318225423 27 341 0.0 0.0 0.00 0.00 0.00 55 1023.8
20190318224933 27 341 0.0 2.0 0.00 0.00 0.00 53 1023.7
20190318224417 28 341 0.0 2.0 0.00 0.00 0.00 53 1023.7
20190318223924 28 333 0.0 1.0 0.00 0.00 0.00 53 1023.6
20190318223427 28 333 0.0 2.0 0.00 0.00 0.00 52 1023.5
20190318222934 28 333 0.0 2.0 0.00 0.00 0.00 51 1023.4
20190318222425 29 330 0.0 2.0 0.00 0.00 0.00 52 1023.4
20190318221917 29 330 0.0 5.0 0.00 0.00 0.00 51 1023.4
20190318221425 29 328 1.0 5.0 0.00 0.00 0.00 51 1023.3
20190318220920 29 7 0.0 2.0 0.00 0.00 0.00 52 1023.3
20190318220440 29 8 0.0 3.0 0.00 0.00 0.00 51 1023.2
20190318215922 29 39 0.0 3.0 0.00 0.00 0.00 51 1023.1
20190318215431 29 356 0.0 6.0 0.00 0.00 0.00 49 1023.1
20190318214922 30 351 0.0 6.0 0.00 0.00 0.00 50 1023.0
20190318214433 30 333 1.0 7.0 0.00 0.00 0.00 50 1023.0
20190318213918 30 12 0.0 7.0 0.00 0.00 0.00 52 1023.0
20190318213445 30 358 0.0 4.0 0.00 0.00 0.00 52 1023.0
20190318212934 30 12 0.0 4.0 0.00 0.00 0.00 49 1023.0
20190318212419 30 355 1.0 6.0 0.00 0.00 0.00 50 1022.9
20190318211927 30 324 0.0 6.0 0.00 0.00 0.00 47 1022.8
20190318211414 30 353 0.0 8.0 0.00 0.00 0.00 49 1022.7
20190318210922 31 10 0.0 8.0 0.00 0.00 0.00 48 1022.7
20190318210449 31 360 1.0 8.0 0.00 0.00 0.00 47 1022.6
20190318205936 31 330 4.0 8.0 0.00 0.00 0.00 45 1022.5
20190318205440 31 316 2.0 7.0 0.00 0.00 0.00 48 1022.6
20190318204931 31 353 0.0 6.0 0.00 0.00 0.00 47 1022.4
20190318204418 31 341 1.0 4.0 0.00 0.00 0.00 44 1022.5
20190318203929 31 338 0.0 6.0 0.00 0.00 0.00 47 1022.4
20190318203433 31 339 2.0 6.0 0.00 0.00 0.00 47 1022.4
20190318202936 31 355 0.0 2.0 0.00 0.00 0.00 49 1022.4
20190318202445 31 344 1.0 5.0 0.00 0.00 0.00 50 1022.5
20190318201931 31 339 0.0 8.0 0.00 0.00 0.00 44 1022.5
20190318201441 32 319 0.0 8.0 0.00 0.00 0.00 42 1022.5
20190318200929 32 8 0.0 5.0 0.00 0.00 0.00 44 1022.4
20190318200455 32 326 1.0 5.0 0.00 0.00 0.00 44 1022.4
20190318195918 33 328 0.0 10.0 0.00 0.00 0.00 42 1022.3
20190318195430 33 33 1.0 10.0 0.00 0.00 0.00 47 1022.3
20190318194934 32 20 0.0 3.0 0.00 0.00 0.00 47 1022.3
20190318194438 32 341 0.0 4.0 0.00 0.00 0.00 45 1022.3
20190318193924 31 335 0.0 6.0 0.00 0.00 0.00 47 1022.3
20190318193427 31 324 0.0 7.0 0.00 0.00 0.00 47 1022.3
20190318192952 31 328 4.0 8.0 0.00 0.00 0.00 44 1022.3
20190318192418 32 284 4.0 8.0 0.00 0.00 0.00 44 1022.3
20190318191926 33 4 2.0 6.0 0.00 0.00 0.00 46 1022.3
20190318191433 32 332 1.0 6.0 0.00 0.00 0.00 44 1022.3
20190318190919 32 325 2.0 6.0 0.00 0.00 0.00 43 1022.3
20190318190446 32 343 1.0 6.0 0.00 0.00 0.00 45 1022.6
20190318185948 32 333 3.0 9.0 0.00 0.00 0.00 44 1022.4
20190318185448 31 272 4.0 9.0 0.00 0.00 0.00 43 1022.6
20190318184930 31 331 1.0 5.0 0.00 0.00 0.00 46 1022.7
20190318184417 32 324 1.0 5.0 0.00 0.00 0.00 44 1022.8
20190318183940 32 303 0.0 5.0 0.00 0.00 0.00 45 1022.8
20190318183422 32 278 1.0 5.0 0.00 0.00 0.00 45 1022.8
20190318182944 31 262 1.0 7.0 0.00 0.00 0.00 46 1022.9
20190318182430 31 275 0.0 7.0 0.00 0.00 0.00 44 1022.9
20190318181934 31 316 2.0 8.0 0.00 0.00 0.00 48 1023.1
20190318181438 31 325 4.0 8.0 0.00 0.00 0.00 50 1023.1
20190318180924 31 360 0.0 4.0 0.00 0.00 0.00 49 1023.0
20190318180431 30 8 0.0 2.0 0.00 0.00 0.00 50 1023.1
20190318175919 29 324 0.0 6.0 0.00 0.00 0.00 47 1023.3
20190318175423 29 322 1.0 7.0 0.00 0.00 0.00 53 1023.3
20190318174927 29 295 2.0 7.0 0.00 0.00 0.00 48 1023.3
20190318174420 29 335 3.0 7.0 0.00 0.00 0.00 51 1023.4
20190318173940 28 336 1.0 7.0 0.00 0.00 0.00 48 1023.4